[[{"header":{"parameterUnit":"m.s-1","parameterCategory":1,"la1":30.2991,"la2":30.254,"lo1":-89.0895,"lo2":-89.0444,"dy":0.0017,"dx":0.0017,"nx":28,"ny":28,"refTime":"2024-03-20T21:00:00:Z","depth":0,"parameterNumber":2,"parameterNumberName":"U-component_of_WINDS"},"data":[0,0,0,0,0,0,0,0,0,0,0,0,0,0,0,0,0,0,0,0,0,0,0,0,0,0,0,0,0,0,0,0,0,0,0,0,0,0,0,0,0,0,0,0,0,0,0,0,0,0,0,0,0,0,0,0,0,0,-1.5264,-1.5264,0,-1.5276,-1.5276,-1.5276,-1.5197,-1.5195,-1.5192,-1.519,-1.5207,-1.5209,-1.5212,0,0,0,0,0,0,0,0,0,0,0,0,0,-1.5179,-1.5181,-1.5264,-1.5264,-1.5264,-1.5276,-1.5276,-1.5276,-1.5197,-1.5194,-1.5192,-1.5189,-1.5206,-1.5209,-1.5212,0,0,0,0,0,0,0,0,0,0,0,0,0,-1.5206,-1.5181,-1.5264,-1.5226,-1.5223,-1.5276,-1.5276,-1.5276,-1.5198,-1.5194,-1.5191,-1.5188,-1.5205,-1.5209,-1.5212,-1.5304,0,0,-1.5224,-1.5226,0,0,0,0,0,0,0,0,-1.5205,-1.5209,-1.5232,-1.5229,-1.5225,-1.5231,-1.5252,-1.5286,-1.5199,-1.5207,-1.519,-1.5186,-1.5218,-1.5221,-1.523,-1.5304,-1.5305,-1.5224,-1.5227,-1.5228,-1.5229,0,0,0,0,0,0,0,-1.5203,-1.5208,-1.5269,-1.5232,-1.5228,-1.5211,-1.5211,-1.5258,-1.5232,-1.5206,-1.5201,-1.5203,-1.5216,-1.5227,-1.523,-1.5305,-1.5224,-1.5228,-1.523,-1.5232,-1.5458,-1.5461,0,0,0,0,0,0,-1.5205,-1.5207,-1.5268,-1.5269,-1.5206,-1.5215,-1.5215,-1.5233,-1.5231,-1.5227,-1.5206,-1.5199,-1.5222,-1.5226,-1.523,-1.5338,-1.5228,-1.5232,-1.5234,-1.5454,-1.5458,-1.5462,0,0,0,0,0,0,-1.5204,-1.5211,-1.5268,-1.5237,-1.5242,-1.522,-1.5241,-1.5235,-1.5246,-1.523,-1.5226,-1.5222,-1.5219,-1.5225,-1.5286,-1.5337,-1.5234,-1.5237,-1.545,-1.5455,-1.546,-1.5552,0,0,0,0,0,0,-1.5202,-1.5211,-1.5244,-1.5238,-1.5244,-1.5322,-1.5244,-1.5238,-1.5252,-1.5244,-1.5244,-1.5241,-1.5217,-1.5281,-1.529,-1.534,-1.524,-1.5445,-1.5452,-1.5459,-1.5545,-1.556,-1.5574,0,0,0,0,0,-1.5199,-1.527,-1.5246,-1.5254,-1.5284,-1.5325,-1.5329,-1.5299,-1.5256,-1.529,-1.5281,-1.5241,-1.5331,-1.5288,-1.5297,-1.535,-1.5441,-1.545,-1.5458,-1.5538,-1.5557,-1.5574,0,0,0,0,0,0,-1.5282,-1.5268,-1.5241,-1.5312,-1.532,-1.5311,-1.5352,-1.532,-1.5341,-1.5332,-1.5296,-1.5297,-1.5364,-1.5364,-1.5316,-1.5439,-1.5379,-1.539,-1.5437,-1.5455,-1.5469,-1.5467,-1.5243,0,0,0,0,0,-1.5309,-1.5341,-1.5328,-1.5392,-1.5397,-1.5375,-1.5391,-1.5368,-1.5375,-1.5378,-1.5373,-1.5383,-1.5414,-1.5435,-1.5462,-1.5546,-1.5545,-1.5587,-1.5601,-1.5613,-1.5622,-1.5668,-1.5687,-1.549,-1.549,-1.549,0,0,-1.5364,-1.5361,-1.5383,-1.5409,-1.5412,-1.5448,-1.5378,-1.5418,-1.5445,-1.5385,-1.5441,-1.5439,-1.5448,-1.5522,-1.5554,-1.5523,-1.5677,-1.5624,-1.5634,-1.5636,-1.5679,-1.5697,-1.5714,-1.5496,-1.5495,-1.5494,0,0,-1.5483,-1.5483,-1.5537,-1.5542,-1.5549,-1.5534,-1.5547,-1.5544,-1.554,-1.5596,-1.5552,-1.5586,-1.5639,-1.5647,-1.5659,-1.5786,-1.575,-1.5796,-1.5872,-1.5917,-1.5932,-1.5946,-1.5991,-1.6008,-1.5806,-1.5806,-1.5806,0,-1.5551,-1.5601,-1.5569,-1.5613,-1.5626,-1.5574,-1.5629,-1.5637,-1.5652,-1.5664,-1.563,-1.5697,-1.5699,-1.5774,-1.5806,-1.5817,-1.5832,-1.5794,-1.5933,-1.5946,-1.5958,-1.6001,-1.6018,-1.5812,-1.5811,-1.581,-1.581,0,-1.5685,-1.5722,-1.5765,-1.578,-1.5799,-1.5849,-1.5826,-1.585,-1.5826,-1.5816,-1.5876,-1.5878,-1.5905,-1.5922,-1.59,-1.5996,-1.5976,-1.5938,-1.5876,-1.5983,-1.6023,-1.6039,-1.5819,-1.5817,-1.5816,-1.5815,0,0,-1.5852,-1.5852,-1.5868,-1.5876,-1.5881,-1.5909,-1.5959,-1.5985,-1.6006,-1.6021,-1.6061,-1.611,-1.6075,-1.6089,-1.6067,-1.6107,-1.6209,-1.6064,-1.6064,-1.6091,-1.6316,-1.6343,-1.6362,-1.6187,-1.619,-1.6192,-1.6315,0,-1.5967,-1.6048,-1.6023,-1.6106,-1.614,-1.6094,-1.6137,-1.6146,-1.6139,-1.6169,-1.6163,-1.6197,-1.6149,-1.6157,-1.6195,-1.6188,-1.6253,-1.618,-1.6226,-1.6227,-1.6222,-1.6383,-1.6411,-1.6527,-1.633,-1.6333,-1.6335,0,-1.6111,-1.6131,-1.6217,-1.6219,-1.6232,-1.6271,-1.6295,-1.6324,-1.6335,-1.6328,-1.6345,-1.6316,-1.6367,-1.6308,-1.6379,-1.6329,-1.6347,-1.6348,-1.6352,-1.6353,-1.6286,-1.6388,-1.6562,-1.6579,-1.6359,-1.6357,-1.6355,0,-1.6224,-1.6272,-1.633,-1.6339,-1.6342,-1.6371,-1.6374,-1.6382,-1.6401,-1.6423,-1.6435,-1.6463,-1.6478,-1.6502,-1.6483,-1.6441,-1.6557,-1.6496,-1.6553,-1.6554,-1.6577,-1.6576,-1.6756,-1.6593,-1.6592,-1.6592,-1.6592,0,-1.6353,-1.6408,-1.6381,-1.6417,-1.6478,-1.645,-1.6512,-1.651,-1.6519,-1.6555,-1.6518,-1.6553,-1.6527,-1.6561,-1.6547,-1.6609,-1.6616,-1.6613,-1.6608,-1.6615,-1.6615,-1.6624,-1.6615,-1.6596,-1.6595,-1.6595,-1.6594,0,-1.6487,-1.6472,-1.6532,-1.6532,-1.6533,-1.6578,-1.6579,-1.6614,-1.6606,-1.6652,-1.6662,-1.665,-1.6688,-1.6673,-1.6714,-1.6705,-1.6783,-1.6769,-1.6779,-1.6774,-1.6833,-1.6827,-1.7023,-1.7048,-1.687,-1.6872,-1.6874,0,-1.657,-1.6611,-1.6616,-1.6637,-1.6643,-1.6678,-1.6697,-1.6673,-1.6695,-1.6713,-1.6746,-1.6781,-1.6807,-1.6872,-1.6868,-1.69,-1.6885,-1.6952,-1.689,-1.6896,-1.6885,-1.6882,-1.6887,-1.6964,-1.6966,-1.6968,-1.6969,0,-1.6718,-1.6709,-1.6737,-1.6764,-1.6788,-1.6808,-1.6824,-1.6845,-1.6822,-1.6849,-1.6888,-1.6909,-1.6951,-1.6987,-1.7017,-1.7022,-1.6993,-1.699,-1.7004,-1.701,-1.7014,-1.7012,-1.6811,-1.6984,-1.6983,-1.6982,-1.6981,-1.698,-1.6828,-1.6863,-1.6872,-1.6906,-1.6917,-1.6934,-1.6967,-1.6964,-1.6995,-1.7027,-1.7013,-1.7058,-1.7072,-1.7108,-1.7119,-1.7155,-1.7129,-1.7151,-1.7156,-1.7161,-1.7168,-1.701,-1.7161,-1.716,-1.716,-1.716,-1.7159,0,-1.6973,-1.6978,-1.7009,-1.7034,-1.7062,-1.7033,-1.7051,-1.7076,-1.7116,-1.7131,-1.7159,-1.7205,-1.7241,-1.7241,-1.7275,-1.7305,-1.7292,-1.7314,-1.7311,-1.7313,-1.719,-1.7173,-1.7324,-1.7324,-1.7324,-1.7324,-1.7324,-1.7324,-1.7051,-1.7109,-1.7103,-1.7167,-1.7172,-1.7215,-1.7228,-1.7245,-1.7257,-1.731,-1.734,-1.734,-1.735,-1.7385,-1.7418,-1.7418,-1.7431,-1.7459,-1.7453,-1.7338,-1.7321,-1.7306,-1.7289,-1.7462,-1.7462,-1.7573,-1.7574,-1.7574]},{"header":{"parameterUnit":"m.s-1","parameterCategory":1,"la1":30.2991,"la2":30.254,"lo1":-89.0895,"lo2":-89.0444,"dy":0.0017,"dx":0.0017,"nx":28,"ny":28,"refTime":"2024-03-20T21:00:00:Z","depth":0,"parameterNumber":3,"parameterNumberName":"V-component_of_WINDS"},"data":[0,0,0,0,0,0,0,0,0,0,0,0,0,0,0,0,0,0,0,0,0,0,0,0,0,0,0,0,0,0,0,0,0,0,0,0,0,0,0,0,0,0,0,0,0,0,0,0,0,0,0,0,0,0,0,0,0,0,0.3538,0.3539,0,0.3624,0.3625,0.3626,0.3713,0.3715,0.3716,0.3717,0.3806,0.3807,0.3809,0,0,0,0,0,0,0,0,0,0,0,0,0,0.3448,0.3449,0.3538,0.3539,0.354,0.3624,0.3625,0.3627,0.3713,0.3715,0.3716,0.3717,0.3806,0.3807,0.3809,0,0,0,0,0,0,0,0,0,0,0,0,0,0.3506,0.345,0.3538,0.3593,0.3599,0.3624,0.3625,0.3627,0.3713,0.3715,0.3716,0.3718,0.3805,0.3807,0.3809,0.3786,0,0,0.3815,0.3816,0,0,0,0,0,0,0,0,0.3503,0.3509,0.3584,0.359,0.3596,0.366,0.3627,0.368,0.3712,0.367,0.3717,0.3719,0.3756,0.3762,0.3775,0.379,0.3794,0.3815,0.3816,0.3817,0.3818,0,0,0,0,0,0,0,0.3499,0.3506,0.3572,0.3585,0.3592,0.3614,0.3624,0.3637,0.3702,0.3674,0.368,0.3689,0.376,0.3772,0.3777,0.3795,0.3815,0.3817,0.3818,0.3819,0.3796,0.3794,0,0,0,0,0,0,0.3486,0.3502,0.3569,0.3575,0.3553,0.3614,0.3626,0.3638,0.3702,0.3714,0.3688,0.3693,0.3768,0.3775,0.3781,0.3758,0.3817,0.3819,0.382,0.3798,0.3796,0.3794,0,0,0,0,0,0,0.3484,0.3491,0.3566,0.354,0.3551,0.3614,0.3627,0.3638,0.3651,0.3713,0.3725,0.3689,0.377,0.3778,0.3784,0.3762,0.382,0.3821,0.38,0.3797,0.3795,0.3712,0,0,0,0,0,0,0.3481,0.349,0.3482,0.3539,0.3552,0.3567,0.3625,0.3639,0.3654,0.3662,0.3717,0.3728,0.3772,0.378,0.3786,0.3766,0.3823,0.3802,0.3799,0.3795,0.3717,0.3707,0.3699,0,0,0,0,0,0.3477,0.3455,0.3481,0.3489,0.3544,0.3566,0.3574,0.3625,0.3652,0.3645,0.3684,0.3726,0.3764,0.378,0.3787,0.3768,0.3804,0.38,0.3796,0.3722,0.3709,0.3699,0,0,0,0,0,0,0.3394,0.3464,0.3493,0.3489,0.3521,0.3581,0.3573,0.361,0.3635,0.3641,0.3704,0.3715,0.3714,0.3741,0.3759,0.3749,0.3789,0.3787,0.3731,0.372,0.371,0.3704,0.3825,0,0,0,0,0,0.3375,0.3387,0.3448,0.3439,0.3453,0.351,0.3521,0.3558,0.3593,0.3607,0.3647,0.368,0.37,0.3711,0.3732,0.3721,0.3735,0.3711,0.3702,0.3694,0.3691,0.3687,0.3677,0.3781,0.3781,0.3781,0,0,0.3337,0.3376,0.338,0.3423,0.3452,0.3463,0.3521,0.353,0.3539,0.3609,0.3617,0.3647,0.3688,0.3685,0.3686,0.3708,0.3665,0.3689,0.3682,0.3684,0.3682,0.3672,0.3663,0.3778,0.3778,0.3779,0,0,0.3272,0.3303,0.3299,0.3326,0.3369,0.3407,0.3405,0.3459,0.3482,0.3491,0.3543,0.3555,0.3587,0.3614,0.3631,0.3576,0.3615,0.3581,0.3532,0.3528,0.3519,0.3513,0.3493,0.3485,0.3577,0.3577,0.3577,0,0.3219,0.3238,0.3292,0.3298,0.3315,0.3378,0.3374,0.3398,0.3446,0.3456,0.348,0.3521,0.3553,0.3557,0.3544,0.3556,0.3556,0.3575,0.3516,0.351,0.3504,0.3486,0.3478,0.3573,0.3573,0.3574,0.3574,0,0.3171,0.3183,0.3174,0.3218,0.3234,0.3235,0.3289,0.3299,0.3333,0.3368,0.3376,0.3416,0.3447,0.345,0.3484,0.3459,0.3471,0.3505,0.3547,0.3489,0.3473,0.3466,0.3566,0.3568,0.3569,0.357,0,0,0.3058,0.313,0.3126,0.3146,0.3198,0.3208,0.3211,0.3241,0.3248,0.3278,0.3283,0.3308,0.3339,0.3359,0.3396,0.3392,0.3345,0.3426,0.3428,0.341,0.3319,0.3294,0.3285,0.3371,0.337,0.3369,0.3316,0,0.3002,0.3013,0.3061,0.3057,0.3068,0.3128,0.3131,0.3162,0.3195,0.3209,0.3246,0.3262,0.3302,0.3314,0.3313,0.3351,0.3328,0.3355,0.3376,0.3376,0.3365,0.3277,0.3251,0.3199,0.331,0.3309,0.3308,0,0.294,0.2965,0.2962,0.3012,0.3019,0.3021,0.3051,0.3064,0.3101,0.3125,0.3147,0.3188,0.3195,0.3234,0.3244,0.3262,0.3273,0.3293,0.3292,0.3297,0.3339,0.328,0.3184,0.3176,0.3299,0.33,0.33,0,0.2858,0.2891,0.2894,0.2909,0.2968,0.2968,0.2992,0.3031,0.3045,0.3071,0.3081,0.3108,0.3122,0.3142,0.319,0.3213,0.3194,0.3237,0.3214,0.3213,0.3209,0.3208,0.3114,0.3214,0.3215,0.3215,0.3215,0,0.2792,0.2787,0.2858,0.2859,0.2856,0.2911,0.2907,0.2937,0.297,0.2979,0.3031,0.3038,0.31,0.3114,0.3151,0.3154,0.316,0.318,0.319,0.3175,0.3173,0.3184,0.3189,0.3213,0.3213,0.3214,0.3214,0,0.27,0.2747,0.2754,0.2808,0.2822,0.2817,0.2864,0.2867,0.2902,0.2912,0.2918,0.2973,0.2992,0.3041,0.3073,0.3098,0.309,0.3108,0.3078,0.3084,0.3059,0.306,0.2968,0.2959,0.3065,0.3064,0.3063,0,0.2655,0.2653,0.2707,0.2716,0.2738,0.2752,0.2767,0.2821,0.2834,0.2875,0.2873,0.2896,0.2917,0.2944,0.2987,0.3011,0.3031,0.2997,0.3035,0.302,0.3031,0.3031,0.3031,0.2989,0.2987,0.2986,0.2985,0,0.257,0.2593,0.2612,0.2638,0.2654,0.2678,0.2704,0.2709,0.2769,0.2781,0.28,0.2816,0.2848,0.287,0.2901,0.2926,0.2966,0.2973,0.2969,0.2955,0.2937,0.2946,0.3055,0.2975,0.2976,0.2977,0.2977,0.2978,0.2502,0.2502,0.254,0.2559,0.2584,0.2607,0.2613,0.2649,0.2666,0.2696,0.2726,0.2742,0.2778,0.2824,0.2846,0.2859,0.288,0.2874,0.2873,0.2871,0.2864,0.2934,0.2865,0.2865,0.2866,0.2866,0.2866,0,0.242,0.2447,0.2463,0.2498,0.2513,0.2548,0.2579,0.2588,0.2602,0.2632,0.2651,0.2673,0.2695,0.2738,0.2764,0.2766,0.2784,0.2771,0.2771,0.2776,0.2844,0.2845,0.2755,0.2755,0.2755,0.2755,0.2755,0.2755,0.2379,0.2382,0.2409,0.2425,0.2453,0.2468,0.2483,0.2504,0.2529,0.2551,0.2568,0.2597,0.2632,0.266,0.2681,0.2693,0.27,0.2681,0.2699,0.2761,0.2772,0.2782,0.2783,0.2681,0.2681,0.263,0.263,0.2629]}]]